| time (UTC) | temp F | wind direction | speed knots | gust knots | rain 1hr in | rain 24hr in | rain mn in | humidity % | barometer mb |
| 20260902194513 | 68 | 329 | 1.7 | 0.9 | 0.00 | 0.00 | 0.00 | 63 | 974.3 |
| 20260902194058 | 68 | 329 | 1.7 | 0.9 | 0.00 | 0.00 | 0.00 | 63 | 974.1 |
| 20260902193623 | 68 | 324 | 1.7 | 0.9 | 0.00 | 0.00 | 0.00 | 63 | 974.3 |
| 20260902193158 | 68 | 324 | 0.9 | 0.9 | 0.00 | 0.00 | 0.00 | 63 | 974.3 |
| 20260902192708 | 68 | 324 | 0.9 | 2.6 | 0.00 | 0.00 | 0.00 | 63 | 974.3 |
| 20260902192253 | 68 | 324 | 0.9 | 0.9 | 0.00 | 0.00 | 0.00 | 63 | 974.3 |
| 20260902191808 | 68 | 324 | 1.7 | 0.9 | 0.00 | 0.00 | 0.00 | 63 | 974.3 |
| 20260902191353 | 68 | 324 | 1.7 | 0.9 | 0.00 | 0.00 | 0.00 | 63 | 974.2 |
| 20260902190913 | 68 | 324 | 0.9 | 0.9 | 0.00 | 0.00 | 0.00 | 61 | 974.2 |
| 20260902190453 | 68 | 324 | 0.9 | 0.9 | 0.00 | 0.00 | 0.00 | 61 | 974.1 |
| 20260902190033 | 68 | 324 | 1.7 | 2.6 | 0.00 | 0.00 | 0.00 | 61 | 974.1 |
| 20260902185555 | 68 | 324 | 1.7 | 2.6 | 0.00 | 0.00 | 0.00 | 57 | 973.9 |
| 20260902185138 | 68 | 331 | 1.7 | 2.6 | 0.00 | 0.00 | 0.00 | 57 | 973.9 |
| 20260902184655 | 68 | 331 | 2.6 | 4.3 | 0.00 | 0.00 | 0.00 | 57 | 974.0 |
| 20260902184218 | 68 | 331 | 2.6 | 2.6 | 0.00 | 0.00 | 0.00 | 57 | 974.1 |
| 20260902183803 | 68 | 304 | 2.6 | 6.1 | 0.00 | 0.00 | 0.00 | 57 | 973.9 |
| 20260902183355 | 68 | 346 | 2.6 | 4.3 | 0.00 | 0.00 | 0.00 | 57 | 973.7 |
| 20260902182913 | 68 | 346 | 3.5 | 7.8 | 0.00 | 0.00 | 0.00 | 57 | 973.6 |
| 20260902182453 | 68 | 346 | 1.7 | 4.3 | 0.00 | 0.00 | 0.00 | 57 | 973.7 |
| 20260902182018 | 68 | 346 | 1.7 | 2.6 | 0.00 | 0.00 | 0.00 | 57 | 973.5 |
| 20260902181543 | 68 | 346 | 1.7 | 2.6 | 0.00 | 0.00 | 0.00 | 57 | 973.6 |
| 20260902181123 | 68 | 346 | 1.7 | 2.6 | 0.00 | 0.00 | 0.00 | 57 | 973.5 |
| 20260902180643 | 68 | 346 | 1.7 | 4.3 | 0.00 | 0.00 | 0.00 | 57 | 973.5 |
| 20260902180215 | 68 | 296 | 1.7 | 4.3 | 0.00 | 0.00 | 0.00 | 57 | 973.4 |
| 20260902175743 | 69 | 296 | 1.7 | 2.6 | 0.00 | 0.00 | 0.00 | 57 | 973.4 |
| 20260902175308 | 69 | 356 | 2.6 | 4.3 | 0.00 | 0.00 | 0.00 | 55 | 973.4 |
| 20260902174843 | 69 | 356 | 4.3 | 6.1 | 0.00 | 0.00 | 0.00 | 55 | 973.4 |
| 20260902174353 | 69 | 356 | 3.5 | 6.1 | 0.00 | 0.00 | 0.00 | 55 | 973.4 |
| 20260902173913 | 71 | 356 | 5.2 | 6.1 | 0.00 | 0.00 | 0.00 | 55 | 973.4 |
| 20260902173453 | 71 | 356 | 7.8 | 6.1 | 0.00 | 0.00 | 0.00 | 55 | 973.3 |
| 20260902172958 | 71 | 337 | 7.8 | 7.8 | 0.00 | 0.00 | 0.00 | 55 | 973.2 |
| 20260902172538 | 71 | 337 | 4.3 | 12.2 | 0.00 | 0.00 | 0.00 | 55 | 973.4 |
| 20260902172115 | 71 | 346 | 3.5 | 7.8 | 0.00 | 0.00 | 0.00 | 55 | 973.1 |
| 20260902171623 | 71 | 355 | 3.5 | 2.6 | 0.00 | 0.00 | 0.00 | 50 | 973.3 |
| 20260902171135 | 72 | 355 | 1.7 | 2.6 | 0.00 | 0.00 | 0.00 | 50 | 973.2 |
| 20260902170728 | 72 | 355 | 5.2 | 6.1 | 0.00 | 0.00 | 0.00 | 50 | 973.4 |
| 20260902170243 | 72 | 350 | 5.2 | 6.1 | 0.00 | 0.00 | 0.00 | 50 | 973.2 |
| 20260902165808 | 72 | 350 | 5.2 | 4.3 | 0.00 | 0.00 | 0.00 | 50 | 973.4 |
| 20260902165338 | 72 | 350 | 5.2 | 7.8 | 0.00 | 0.00 | 0.00 | 50 | 973.4 |
| 20260902164933 | 72 | 311 | 5.2 | 7.8 | 0.00 | 0.00 | 0.00 | 50 | 973.4 |
| 20260902164500 | 72 | 358 | 6.1 | 7.8 | 0.00 | 0.00 | 0.00 | 50 | 973.3 |
| 20260902164053 | 72 | 357 | 6.1 | 7.8 | 0.00 | 0.00 | 0.00 | 50 | 973.3 |
| 20260902163648 | 72 | 357 | 5.2 | 4.3 | 0.00 | 0.00 | 0.00 | 50 | 973.0 |
| 20260902163223 | 72 | 354 | 0.9 | 4.3 | 0.00 | 0.00 | 0.00 | 50 | 973.0 |
| 20260902162748 | 71 | 341 | 0.9 | 4.3 | 0.00 | 0.00 | 0.00 | 50 | 973.1 |
| 20260902162323 | 71 | 342 | 4.3 | 4.3 | 0.00 | 0.00 | 0.00 | 50 | 973.2 |
| 20260902161828 | 72 | 346 | 4.3 | 6.1 | 0.00 | 0.00 | 0.00 | 50 | 973.1 |
| 20260902161418 | 72 | 346 | 2.6 | 4.3 | 0.00 | 0.00 | 0.00 | 50 | 973.2 |
| 20260902161013 | 72 | 346 | 5.2 | 11.3 | 0.00 | 0.00 | 0.00 | 50 | 973.1 |
| 20260902160518 | 72 | 346 | 5.2 | 7.8 | 0.00 | 0.00 | 0.00 | 50 | 973.3 |
| 20260902160053 | 72 | 346 | 4.3 | 9.6 | 0.00 | 0.00 | 0.00 | 50 | 973.5 |
| 20260902155633 | 72 | 356 | 1.7 | 7.8 | 0.00 | 0.00 | 0.00 | 50 | 973.2 |
| 20260902155153 | 72 | 356 | 1.7 | 6.1 | 0.00 | 0.00 | 0.00 | 50 | 973.2 |
| 20260902154738 | 72 | 355 | 3.5 | 6.1 | 0.00 | 0.00 | 0.00 | 50 | 973.1 |
| 20260902154313 | 72 | 268 | 4.3 | 4.3 | 0.00 | 0.00 | 0.00 | 50 | 973.2 |
| 20260902153815 | 72 | 288 | 4.3 | 6.1 | 0.00 | 0.00 | 0.00 | 50 | 973.4 |
| 20260902153413 | 72 | 288 | 4.3 | 6.1 | 0.00 | 0.00 | 0.00 | 50 | 973.2 |
| 20260902152953 | 72 | 288 | 4.3 | 4.3 | 0.00 | 0.00 | 0.00 | 50 | 973.2 |
| 20260902152515 | 72 | 264 | 4.3 | 6.1 | 0.00 | 0.00 | 0.00 | 50 | 973.3 |
| 20260902152103 | 73 | 264 | 4.3 | 2.6 | 0.00 | 0.00 | 0.00 | 45 | 973.2 |
| 20260902151633 | 72 | 269 | 3.5 | 6.1 | 0.00 | 0.00 | 0.00 | 45 | 973.1 |
| 20260902151203 | 72 | 345 | 4.3 | 7.8 | 0.00 | 0.00 | 0.00 | 45 | 973.5 |
| 20260902150715 | 72 | 107 | 0.9 | 7.8 | 0.00 | 0.00 | 0.00 | 45 | 973.3 |
| 20260902150238 | 75 | 219 | 0.9 | 11.3 | 0.00 | 0.00 | 0.00 | 45 | 973.2 |
| 20260902145805 | 75 | 334 | 6.1 | 7.8 | 0.00 | 0.00 | 0.00 | 45 | 973.2 |
| 20260902145345 | 75 | 228 | 3.5 | 9.6 | 0.00 | 0.00 | 0.00 | 45 | 973.3 |
| 20260902144928 | 74 | 313 | 3.5 | 12.2 | 0.00 | 0.00 | 0.00 | 45 | 973.4 |
| 20260902144443 | 74 | 276 | 3.5 | 7.8 | 0.00 | 0.00 | 0.00 | 45 | 973.4 |
| 20260902144018 | 74 | 276 | 1.7 | 7.8 | 0.00 | 0.00 | 0.00 | 47 | 973.5 |
| 20260902143608 | 73 | 357 | 3.5 | 9.6 | 0.00 | 0.00 | 0.00 | 50 | 973.2 |
| 20260902143138 | 73 | 135 | 3.5 | 4.3 | 0.00 | 0.00 | 0.00 | 50 | 973.3 |
| 20260902142723 | 74 | 135 | 0.9 | 9.6 | 0.00 | 0.00 | 0.00 | 50 | 973.2 |
| 20260902142245 | 72 | 305 | 4.3 | 9.6 | 0.00 | 0.00 | 0.00 | 50 | 973.5 |
| 20260902141827 | 71 | 41 | 5.2 | 9.6 | 0.00 | 0.00 | 0.00 | 50 | 973.3 |
| 20260902141413 | 71 | 332 | 5.2 | 9.6 | 0.00 | 0.00 | 0.00 | 50 | 973.6 |
| 20260902140934 | 71 | 332 | 4.3 | 9.6 | 0.00 | 0.00 | 0.00 | 50 | 973.6 |
| 20260902140508 | 72 | 234 | 5.2 | 11.3 | 0.00 | 0.00 | 0.00 | 50 | 973.6 |
| 20260902140043 | 72 | 300 | 5.2 | 11.3 | 0.00 | 0.00 | 0.00 | 50 | 973.5 |
| 20260902135615 | 71 | 10 | 5.2 | 9.6 | 0.00 | 0.00 | 0.00 | 50 | 973.7 |
| 20260902135133 | 72 | 2 | 6.1 | 9.6 | 0.00 | 0.00 | 0.00 | 50 | 973.6 |
| 20260902134708 | 72 | 2 | 0.9 | 9.6 | 0.00 | 0.00 | 0.00 | 50 | 973.5 |
| 20260902134243 | 72 | 317 | 0.9 | 9.6 | 0.00 | 0.00 | 0.00 | 50 | 973.4 |
| 20260902133815 | 72 | 230 | 7.0 | 4.3 | 0.00 | 0.00 | 0.00 | 50 | 973.7 |
| 20260902133403 | 72 | 230 | 1.7 | 4.3 | 0.00 | 0.00 | 0.00 | 50 | 973.7 |
| 20260902132933 | 72 | 165 | 4.3 | 4.3 | 0.00 | 0.00 | 0.00 | 50 | 973.6 |
| 20260902132453 | 72 | 118 | 3.5 | 6.1 | 0.00 | 0.00 | 0.00 | 48 | 973.7 |
| 20260902132018 | 72 | 312 | 0.0 | 9.6 | 0.00 | 0.00 | 0.00 | 48 | 973.9 |
| 20260902131543 | 73 | 290 | 1.7 | 9.6 | 0.00 | 0.00 | 0.00 | 48 | 973.9 |
| 20260902131138 | 72 | 290 | 5.2 | 9.6 | 0.00 | 0.00 | 0.00 | 48 | 973.8 |
| 20260902130703 | 72 | 316 | 5.2 | 6.1 | 0.00 | 0.00 | 0.00 | 48 | 973.9 |
| 20260902130218 | 72 | 232 | 5.2 | 9.6 | 0.00 | 0.00 | 0.00 | 48 | 973.8 |
| 20260902125803 | 72 | 318 | 3.5 | 9.6 | 0.00 | 0.00 | 0.00 | 46 | 973.9 |
| 20260902125333 | 72 | 318 | 3.5 | 7.8 | 0.00 | 0.00 | 0.00 | 46 | 973.8 |
| 20260902124913 | 72 | 318 | 3.5 | 7.8 | 0.00 | 0.00 | 0.00 | 46 | 973.9 |
| 20260902124425 | 73 | 282 | 5.2 | 4.3 | 0.00 | 0.00 | 0.00 | 46 | 973.8 |
| 20260902123953 | 72 | 282 | 5.2 | 9.6 | 0.00 | 0.00 | 0.00 | 48 | 973.9 |
| 20260902123528 | 71 | 133 | 5.2 | 4.3 | 0.00 | 0.00 | 0.00 | 48 | 973.8 |
| 20260902123103 | 71 | 133 | 7.8 | 4.3 | 0.00 | 0.00 | 0.00 | 48 | 973.8 |
| 20260902122623 | 71 | 155 | 4.3 | 4.3 | 0.00 | 0.00 | 0.00 | 50 | 973.9 |
| 20260902122143 | 71 | 328 | 6.1 | 4.3 | 0.00 | 0.00 | 0.00 | 47 | 974.2 |
| 20260902121648 | 71 | 117 | 6.1 | 4.3 | 0.00 | 0.00 | 0.00 | 47 | 974.2 |
| 20260902121215 | 72 | 95 | 1.7 | 7.8 | 0.00 | 0.00 | 0.00 | 47 | 974.0 |
| 20260902120743 | 74 | 148 | 1.7 | 6.1 | 0.00 | 0.00 | 0.00 | 47 | 974.1 |
| 20260902120313 | 73 | 148 | 4.3 | 6.1 | 0.00 | 0.00 | 0.00 | 47 | 974.3 |
| 20260902115843 | 73 | 148 | 3.5 | 6.1 | 0.00 | 0.00 | 0.00 | 49 | 974.2 |
| 20260902115423 | 73 | 340 | 4.3 | 19.1 | 0.00 | 0.00 | 0.00 | 48 | 974.3 |
| 20260902115013 | 72 | 259 | 0.9 | 19.1 | 0.00 | 0.00 | 0.00 | 48 | 974.3 |
| 20260902114523 | 72 | 136 | 7.0 | 11.3 | 0.00 | 0.00 | 0.00 | 48 | 974.4 |
| 20260902114055 | 72 | 143 | 7.0 | 11.3 | 0.00 | 0.00 | 0.00 | 48 | 974.4 |
| 20260902113633 | 72 | 121 | 3.5 | 9.6 | 0.00 | 0.00 | 0.00 | 48 | 974.6 |
| 20260902113153 | 72 | 121 | 3.5 | 7.8 | 0.00 | 0.00 | 0.00 | 49 | 974.5 |
| 20260902112713 | 72 | 271 | 6.1 | 7.8 | 0.00 | 0.00 | 0.00 | 48 | 974.8 |
| 20260902112247 | 72 | 200 | 3.5 | 11.3 | 0.00 | 0.00 | 0.00 | 49 | 974.8 |
| 20260902111823 | 71 | 150 | 3.5 | 4.3 | 0.00 | 0.00 | 0.00 | 51 | 974.6 |
| 20260902111358 | 70 | 162 | 3.5 | 6.1 | 0.00 | 0.00 | 0.00 | 51 | 974.5 |
| 20260902110908 | 70 | 260 | 3.5 | 15.6 | 0.00 | 0.00 | 0.00 | 51 | 974.5 |
| 20260902110453 | 70 | 229 | 3.5 | 15.6 | 0.00 | 0.00 | 0.00 | 51 | 974.5 |
| 20260902110018 | 71 | 126 | 3.5 | 11.3 | 0.00 | 0.00 | 0.00 | 49 | 974.7 |
| 20260902105555 | 71 | 126 | 3.5 | 9.6 | 0.00 | 0.00 | 0.00 | 49 | 974.6 |
| 20260902105128 | 71 | 126 | 4.3 | 12.2 | 0.00 | 0.00 | 0.00 | 49 | 974.9 |
| 20260902104708 | 72 | 104 | 7.0 | 4.3 | 0.00 | 0.00 | 0.00 | 54 | 974.9 |
| 20260902104223 | 70 | 104 | 7.8 | 19.1 | 0.00 | 0.00 | 0.00 | 54 | 974.8 |
| 20260902103738 | 70 | 344 | 5.2 | 12.2 | 0.00 | 0.00 | 0.00 | 54 | 975.0 |
| 20260902103248 | 71 | 165 | 5.2 | 7.8 | 0.00 | 0.00 | 0.00 | 54 | 975.0 |
| 20260902102808 | 69 | 165 | 5.2 | 7.8 | 0.00 | 0.00 | 0.00 | 54 | 975.1 |
| 20260902102338 | 69 | 209 | 5.2 | 7.8 | 0.00 | 0.00 | 0.00 | 54 | 975.1 |
| 20260902101928 | 69 | 167 | 5.2 | 9.6 | 0.00 | 0.00 | 0.00 | 54 | 974.9 |
| 20260902101522 | 70 | 167 | 5.2 | 9.6 | 0.00 | 0.00 | 0.00 | 54 | 974.8 |
| 20260902101053 | 70 | 167 | 1.7 | 4.3 | 0.00 | 0.00 | 0.00 | 55 | 975.0 |
| 20260902100558 | 68 | 196 | 1.7 | 6.1 | 0.00 | 0.00 | 0.00 | 55 | 974.9 |
| 20260902100148 | 68 | 294 | 1.7 | 11.3 | 0.00 | 0.00 | 0.00 | 57 | 975.1 |
| 20260902095743 | 68 | 294 | 8.7 | 11.3 | 0.00 | 0.00 | 0.00 | 57 | 975.1 |
| 20260902095323 | 68 | 121 | 4.3 | 2.6 | 0.00 | 0.00 | 0.00 | 57 | 975.1 |
| 20260902094853 | 68 | 177 | 4.3 | 2.6 | 0.00 | 0.00 | 0.00 | 57 | 975.1 |
| 20260902094428 | 68 | 208 | 0.9 | 4.3 | 0.00 | 0.00 | 0.00 | 57 | 975.1 |
| 20260902094013 | 69 | 274 | 4.3 | 9.6 | 0.00 | 0.00 | 0.00 | 57 | 974.8 |
| 20260902093558 | 69 | 358 | 3.5 | 4.3 | 0.00 | 0.00 | 0.00 | 57 | 975.0 |
| 20260902093058 | 69 | 307 | 2.6 | 4.3 | 0.00 | 0.00 | 0.00 | 57 | 974.9 |
| 20260902092615 | 69 | 307 | 1.7 | 4.3 | 0.00 | 0.00 | 0.00 | 59 | 974.9 |
| 20260902092138 | 66 | 187 | 1.7 | 4.3 | 0.00 | 0.00 | 0.00 | 59 | 975.1 |
| 20260902091723 | 66 | 98 | 0.9 | 2.6 | 0.00 | 0.00 | 0.00 | 59 | 975.0 |
| 20260902091259 | 66 | 98 | 1.7 | 2.6 | 0.00 | 0.00 | 0.00 | 59 | 975.1 |
| 20260902090823 | 66 | 98 | 1.7 | 4.3 | 0.00 | 0.00 | 0.00 | 58 | 975.1 |
| 20260902090347 | 66 | 78 | 2.6 | 7.8 | 0.00 | 0.00 | 0.00 | 59 | 975.2 |
| 20260902085938 | 67 | 101 | 2.6 | 0.9 | 0.00 | 0.00 | 0.00 | 60 | 975.0 |
| 20260902085453 | 66 | 29 | 0.9 | 0.9 | 0.00 | 0.00 | 0.00 | 60 | 975.2 |
| 20260902085023 | 66 | 113 | 4.3 | 0.9 | 0.00 | 0.00 | 0.00 | 60 | 975.1 |
| 20260902084538 | 66 | 114 | 1.7 | 2.6 | 0.00 | 0.00 | 0.00 | 64 | 975.1 |
| 20260902084118 | 67 | 115 | 0.9 | 4.3 | 0.00 | 0.00 | 0.00 | 64 | 975.2 |
| 20260902083643 | 67 | 111 | 0.9 | 2.6 | 0.00 | 0.00 | 0.00 | 64 | 975.2 |
| 20260902083203 | 67 | 124 | 0.0 | 2.6 | 0.00 | 0.00 | 0.00 | 64 | 975.1 |
| 20260902082748 | 66 | 166 | 0.9 | 0.9 | 0.00 | 0.00 | 0.00 | 70 | 975.0 |
| 20260902082313 | 66 | 104 | 0.0 | 0.9 | 0.00 | 0.00 | 0.00 | 70 | 975.1 |
| 20260902081846 | 64 | 104 | 0.0 | 0.9 | 0.00 | 0.00 | 0.00 | 70 | 975.2 |
| 20260902081413 | 64 | 104 | 0.9 | 2.6 | 0.00 | 0.00 | 0.00 | 70 | 975.2 |
| 20260902080953 | 64 | 104 | 0.9 | 0.0 | 0.00 | 0.00 | 0.00 | 70 | 975.2 |
| 20260902080508 | 64 | 104 | 0.9 | 2.6 | 0.00 | 0.00 | 0.00 | 70 | 975.4 |
| 20260902080055 | 64 | 104 | 1.7 | 2.6 | 0.00 | 0.00 | 0.00 | 70 | 975.2 |
| 20260902075628 | 64 | 104 | 1.7 | 2.6 | 0.00 | 0.00 | 0.00 | 70 | 975.2 |
| 20260902075148 | 62 | 104 | 0.0 | 0.9 | 0.00 | 0.00 | 0.00 | 70 | 975.2 |
| 20260902074713 | 62 | 104 | 0.0 | 0.9 | 0.00 | 0.00 | 0.00 | 70 | 975.2 |
| 20260902074303 | 60 | 104 | 0.9 | 0.9 | 0.00 | 0.00 | 0.00 | 70 | 975.4 |
| 20260902073828 | 60 | 104 | 0.9 | 0.9 | 0.00 | 0.00 | 0.00 | 74 | 975.5 |
| 20260902073418 | 61 | 104 | 0.9 | 0.9 | 0.00 | 0.00 | 0.00 | 74 | 975.2 |
| 20260902072933 | 61 | 104 | 0.9 | 0.9 | 0.00 | 0.00 | 0.00 | 74 | 975.0 |
| 20260902072523 | 60 | 104 | 0.0 | 2.6 | 0.00 | 0.00 | 0.00 | 74 | 975.1 |
| 20260902072115 | 60 | 104 | 0.0 | 0.0 | 0.00 | 0.00 | 0.00 | 77 | 974.9 |
| 20260902071633 | 60 | 92 | 0.9 | 0.0 | 0.00 | 0.00 | 0.00 | 79 | 975.1 |
| 20260902071203 | 60 | 92 | 0.0 | 0.9 | 0.00 | 0.00 | 0.00 | 79 | 975.3 |
| 20260902070702 | 59 | 92 | 0.0 | 0.9 | 0.00 | 0.00 | 0.00 | 79 | 975.0 |
| 20260902070228 | 59 | 92 | 0.0 | 0.9 | 0.00 | 0.00 | 0.00 | 79 | 974.8 |
| 20260902065828 | 59 | 92 | 0.9 | 0.9 | 0.00 | 0.00 | 0.00 | 79 | 975.0 |
| 20260902065403 | 59 | 92 | 0.0 | 0.0 | 0.00 | 0.00 | 0.00 | 79 | 974.9 |
| 20260902064948 | 58 | 92 | 0.0 | 0.0 | 0.00 | 0.00 | 0.00 | 79 | 975.0 |
| 20260902064518 | 56 | 92 | 0.0 | 0.0 | 0.00 | 0.00 | 0.00 | 79 | 974.9 |
| 20260902064048 | 56 | 92 | 0.0 | 0.0 | 0.00 | 0.00 | 0.00 | 79 | 974.9 |
| 20260902063623 | 56 | 92 | 0.0 | 0.9 | 0.00 | 0.00 | 0.00 | 79 | 975.0 |
| 20260902063143 | 56 | 92 | 0.0 | 0.9 | 0.00 | 0.00 | 0.00 | 79 | 975.1 |
| 20260902062718 | 56 | 46 | 0.0 | 0.9 | 0.00 | 0.00 | 0.00 | 79 | 974.9 |
| 20260902062315 | 56 | 46 | 0.0 | 0.9 | 0.00 | 0.00 | 0.00 | 79 | 975.1 |
| 20260902061843 | 54 | 46 | 0.0 | 0.9 | 0.00 | 0.00 | 0.00 | 79 | 974.9 |
| 20260902061428 | 54 | 46 | 0.0 | 0.9 | 0.00 | 0.00 | 0.00 | 80 | 975.1 |
| 20260902060945 | 54 | 46 | 0.0 | 0.9 | 0.00 | 0.00 | 0.00 | 88 | 975.0 |
| 20260902060548 | 54 | 46 | 0.9 | 0.9 | 0.00 | 0.00 | 0.00 | 88 | 975.0 |
| 20260902060118 | 54 | 14 | 0.9 | 0.0 | 0.00 | 0.00 | 0.00 | 88 | 974.8 |
| 20260902055653 | 52 | 331 | 0.9 | 0.0 | 0.00 | 0.00 | 0.00 | 88 | 975.1 |
| 20260902055213 | 52 | 331 | 0.9 | 0.0 | 0.00 | 0.00 | 0.00 | 88 | 975.0 |
| 20260902054728 | 52 | 331 | 0.0 | 0.9 | 0.00 | 0.00 | 0.00 | 88 | 975.2 |
| 20260902054308 | 52 | 331 | 0.0 | 0.9 | 0.00 | 0.00 | 0.00 | 88 | 975.0 |
| 20260902053858 | 52 | 331 | 0.0 | 0.9 | 0.00 | 0.00 | 0.00 | 88 | 975.1 |
| 20260902053443 | 52 | 331 | 0.0 | 0.9 | 0.00 | 0.00 | 0.00 | 88 | 975.0 |
| 20260902053013 | 52 | 331 | 0.0 | 0.9 | 0.00 | 0.00 | 0.00 | 88 | 974.7 |
| 20260902052548 | 52 | 331 | 0.0 | 0.9 | 0.00 | 0.00 | 0.00 | 88 | 975.0 |
| 20260902052133 | 52 | 331 | 0.0 | 0.0 | 0.00 | 0.00 | 0.00 | 88 | 974.8 |
| 20260902051708 | 52 | 331 | 0.0 | 0.0 | 0.00 | 0.00 | 0.00 | 88 | 974.9 |
| 20260902051253 | 52 | 331 | 0.0 | 0.0 | 0.00 | 0.00 | 0.00 | 88 | 975.0 |
| 20260902050848 | 50 | 332 | 0.0 | 0.0 | 0.00 | 0.00 | 0.00 | 88 | 974.9 |
| 20260902050403 | 50 | 332 | 0.0 | 0.0 | 0.00 | 0.00 | 0.00 | 91 | 974.9 |
| 20260902045943 | 50 | 332 | 0.0 | 0.9 | 0.00 | 0.00 | 0.00 | 91 | 975.0 |
| 20260902045523 | 50 | 332 | 0.9 | 0.9 | 0.00 | 0.00 | 0.00 | 91 | 975.0 |
| 20260902045048 | 50 | 332 | 0.9 | 0.9 | 0.00 | 0.00 | 0.00 | 91 | 974.8 |
| 20260902044633 | 50 | 332 | 0.9 | 0.9 | 0.00 | 0.00 | 0.00 | 91 | 974.9 |
| 20260902044203 | 50 | 332 | 0.0 | 0.9 | 0.00 | 0.00 | 0.00 | 91 | 975.0 |
| 20260902043753 | 50 | 332 | 0.0 | 0.9 | 0.00 | 0.00 | 0.00 | 91 | 974.7 |
| 20260902043255 | 50 | 332 | 0.0 | 0.9 | 0.00 | 0.00 | 0.00 | 92 | 974.9 |
| 20260902042818 | 50 | 332 | 0.0 | 0.9 | 0.00 | 0.00 | 0.00 | 92 | 974.8 |
| 20260902042343 | 50 | 332 | 0.0 | 0.9 | 0.00 | 0.00 | 0.00 | 92 | 974.9 |
| 20260902041933 | 50 | 332 | 0.0 | 0.9 | 0.00 | 0.00 | 0.00 | 92 | 974.7 |
| 20260902041503 | 50 | 332 | 0.0 | 0.9 | 0.00 | 0.00 | 0.00 | 94 | 974.7 |
| 20260902041033 | 50 | 332 | 0.0 | 0.9 | 0.00 | 0.00 | 0.00 | 94 | 974.7 |
| 20260902040558 | 50 | 332 | 0.0 | 0.0 | 0.00 | 0.00 | 0.00 | 94 | 974.7 |
| 20260902040148 | 50 | 332 | 0.0 | 0.0 | 0.00 | 0.00 | 0.00 | 95 | 975.0 |
| 20260902035703 | 50 | 332 | 0.0 | 0.0 | 0.00 | 0.00 | 0.00 | 95 | 974.9 |
| 20260902035228 | 50 | 332 | 0.0 | 0.0 | 0.00 | 0.00 | 0.00 | 95 | 974.7 |
| 20260902034758 | 50 | 332 | 0.0 | 0.0 | 0.00 | 0.00 | 0.00 | 95 | 974.9 |
| 20260902034258 | 50 | 332 | 0.0 | 0.9 | 0.00 | 0.00 | 0.00 | 95 | 974.9 |
| 20260902033823 | 50 | 332 | 0.9 | 0.9 | 0.00 | 0.00 | 0.00 | 95 | 974.8 |
| 20260902033328 | 50 | 332 | 0.9 | 0.9 | 0.00 | 0.00 | 0.00 | 95 | 974.8 |
| 20260902032833 | 50 | 332 | 0.0 | 0.0 | 0.00 | 0.00 | 0.00 | 94 | 974.9 |
| 20260902032403 | 50 | 332 | 0.0 | 0.0 | 0.00 | 0.00 | 0.00 | 94 | 974.7 |
| 20260902031953 | 51 | 332 | 0.0 | 0.0 | 0.00 | 0.00 | 0.00 | 94 | 974.7 |
| 20260902031505 | 51 | 332 | 0.0 | 0.0 | 0.00 | 0.00 | 0.00 | 94 | 974.8 |
| 20260902031053 | 51 | 332 | 0.0 | 0.9 | 0.00 | 0.00 | 0.00 | 94 | 974.8 |
| 20260902030555 | 51 | 332 | 0.9 | 0.9 | 0.00 | 0.00 | 0.00 | 94 | 974.9 |
| 20260902030128 | 51 | 332 | 1.7 | 0.9 | 0.00 | 0.00 | 0.00 | 93 | 974.7 |
| 20260902025653 | 51 | 332 | 0.0 | 0.9 | 0.00 | 0.00 | 0.00 | 93 | 974.8 |
| 20260902025243 | 51 | 332 | 0.0 | 0.9 | 0.00 | 0.00 | 0.00 | 93 | 974.6 |
| 20260902024828 | 51 | 332 | 0.0 | 0.9 | 0.00 | 0.00 | 0.00 | 93 | 974.8 |
| 20260902024413 | 51 | 332 | 0.0 | 0.9 | 0.00 | 0.00 | 0.00 | 93 | 974.9 |
| 20260902023923 | 51 | 332 | 0.0 | 0.9 | 0.00 | 0.00 | 0.00 | 93 | 975.0 |
| 20260902023435 | 51 | 332 | 0.0 | 0.9 | 0.00 | 0.00 | 0.00 | 93 | 974.9 |
| 20260902022947 | 51 | 330 | 0.9 | 0.0 | 0.00 | 0.00 | 0.00 | 93 | 975.0 |
| 20260902022523 | 51 | 330 | 1.7 | 0.9 | 0.00 | 0.00 | 0.00 | 93 | 974.9 |
| 20260902022043 | 51 | 330 | 0.9 | 0.9 | 0.00 | 0.00 | 0.00 | 93 | 974.7 |
| 20260902021613 | 51 | 330 | 0.9 | 0.9 | 0.00 | 0.00 | 0.00 | 93 | 974.9 |
| 20260902021128 | 51 | 330 | 0.9 | 0.9 | 0.00 | 0.00 | 0.00 | 93 | 974.9 |
| 20260902020653 | 51 | 330 | 0.9 | 0.9 | 0.00 | 0.00 | 0.00 | 93 | 974.9 |
| 20260902020243 | 51 | 330 | 0.0 | 0.0 | 0.00 | 0.00 | 0.00 | 90 | 974.7 |
| 20260902015805 | 51 | 330 | 0.0 | 0.0 | 0.00 | 0.00 | 0.00 | 90 | 974.9 |
| 20260902015403 | 51 | 330 | 0.0 | 0.0 | 0.00 | 0.00 | 0.00 | 90 | 975.0 |
| 20260902014923 | 51 | 330 | 0.0 | 0.0 | 0.00 | 0.00 | 0.00 | 90 | 974.9 |
| 20260902014453 | 53 | 330 | 0.9 | 0.0 | 0.00 | 0.00 | 0.00 | 90 | 975.0 |
| 20260902014015 | 53 | 330 | 0.0 | 0.0 | 0.00 | 0.00 | 0.00 | 90 | 975.1 |
| 20260902013608 | 53 | 330 | 0.0 | 0.0 | 0.00 | 0.00 | 0.00 | 90 | 975.0 |
| 20260902013138 | 53 | 330 | 0.0 | 0.9 | 0.00 | 0.00 | 0.00 | 90 | 975.1 |
| 20260902012713 | 53 | 330 | 0.0 | 0.9 | 0.00 | 0.00 | 0.00 | 90 | 975.0 |
| 20260902012308 | 53 | 330 | 0.9 | 0.0 | 0.00 | 0.00 | 0.00 | 90 | 975.2 |
| 20260902011818 | 53 | 330 | 0.9 | 0.0 | 0.00 | 0.00 | 0.00 | 90 | 975.0 |
| 20260902011343 | 53 | 330 | 0.9 | 0.0 | 0.00 | 0.00 | 0.00 | 90 | 975.2 |
| 20260902010923 | 53 | 330 | 0.9 | 0.0 | 0.00 | 0.00 | 0.00 | 90 | 975.1 |
| 20260902010505 | 53 | 330 | 0.9 | 0.0 | 0.00 | 0.00 | 0.00 | 89 | 975.1 |
| 20260902010055 | 53 | 330 | 0.9 | 0.0 | 0.00 | 0.00 | 0.00 | 90 | 975.2 |
| 20260902005628 | 53 | 330 | 0.9 | 0.0 | 0.00 | 0.00 | 0.00 | 90 | 975.2 |
| 20260902005223 | 53 | 330 | 0.9 | 0.0 | 0.00 | 0.00 | 0.00 | 90 | 975.1 |
| 20260902004808 | 53 | 330 | 0.9 | 0.0 | 0.00 | 0.00 | 0.00 | 89 | 975.3 |
| 20260902004343 | 53 | 330 | 0.9 | 0.0 | 0.00 | 0.00 | 0.00 | 89 | 975.0 |
| 20260902003918 | 53 | 330 | 0.9 | 0.0 | 0.00 | 0.00 | 0.00 | 89 | 975.1 |
| 20260902003423 | 53 | 330 | 0.9 | 0.0 | 0.00 | 0.00 | 0.00 | 89 | 975.2 |
| 20260902003003 | 53 | 330 | 0.9 | 0.0 | 0.00 | 0.00 | 0.00 | 87 | 975.1 |
| 20260902002523 | 53 | 330 | 0.9 | 0.9 | 0.00 | 0.00 | 0.00 | 87 | 975.2 |
| 20260902002053 | 53 | 330 | 0.9 | 0.0 | 0.00 | 0.00 | 0.00 | 87 | 975.3 |
| 20260902001608 | 53 | 331 | 0.0 | 0.9 | 0.00 | 0.00 | 0.00 | 87 | 975.0 |
| 20260902001138 | 53 | 331 | 0.0 | 0.9 | 0.00 | 0.00 | 0.00 | 87 | 975.3 |
| 20260902000728 | 53 | 331 | 0.0 | 0.0 | 0.00 | 0.00 | 0.00 | 87 | 975.2 |
| 20260902000234 | 53 | 331 | 0.0 | 0.0 | 0.00 | 0.00 | 0.00 | 87 | 975.2 |
| 20260901235808 | 53 | 331 | 0.9 | 0.0 | 0.00 | 0.00 | 0.00 | 87 | 975.4 |
| 20260901235335 | 55 | 331 | 0.9 | 0.0 | 0.00 | 0.00 | 0.00 | 87 | 975.2 |
| 20260901234908 | 55 | 331 | 1.7 | 0.0 | 0.00 | 0.00 | 0.00 | 87 | 975.1 |
| 20260901234408 | 55 | 331 | 0.9 | 0.0 | 0.00 | 0.00 | 0.00 | 87 | 975.1 |
| 20260901233953 | 55 | 331 | 0.0 | 0.0 | 0.00 | 0.00 | 0.00 | 87 | 974.9 |
| 20260901233538 | 55 | 331 | 0.0 | 0.0 | 0.00 | 0.00 | 0.00 | 87 | 975.0 |
| 20260901233118 | 55 | 331 | 0.0 | 0.0 | 0.00 | 0.00 | 0.00 | 87 | 974.9 |
| 20260901232633 | 55 | 331 | 0.9 | 0.0 | 0.00 | 0.00 | 0.00 | 87 | 975.1 |
| 20260901232218 | 55 | 331 | 0.0 | 0.0 | 0.00 | 0.00 | 0.00 | 87 | 975.1 |
| 20260901231758 | 55 | 331 | 0.9 | 0.9 | 0.00 | 0.00 | 0.00 | 87 | 975.0 |
| 20260901231343 | 55 | 330 | 0.0 | 0.9 | 0.00 | 0.00 | 0.00 | 87 | 975.1 |
| 20260901230935 | 55 | 330 | 0.0 | 0.0 | 0.00 | 0.00 | 0.00 | 87 | 975.1 |
| 20260901230453 | 55 | 330 | 0.9 | 0.9 | 0.00 | 0.00 | 0.00 | 87 | 975.2 |
| 20260901230013 | 55 | 318 | 0.9 | 0.9 | 0.00 | 0.00 | 0.00 | 87 | 975.1 |
| 20260901225533 | 55 | 318 | 1.7 | 0.9 | 0.00 | 0.00 | 0.00 | 87 | 975.2 |
| 20260901225058 | 55 | 318 | 0.9 | 0.9 | 0.00 | 0.00 | 0.00 | 87 | 975.2 |
| 20260901224633 | 55 | 318 | 0.0 | 0.9 | 0.00 | 0.00 | 0.00 | 87 | 975.2 |
| 20260901224148 | 55 | 318 | 0.0 | 0.0 | 0.00 | 0.00 | 0.00 | 87 | 975.2 |
| 20260901223733 | 55 | 318 | 0.0 | 0.0 | 0.00 | 0.00 | 0.00 | 87 | 975.1 |
| 20260901223303 | 55 | 318 | 0.0 | 0.0 | 0.00 | 0.00 | 0.00 | 87 | 975.0 |
| 20260901222833 | 55 | 318 | 0.0 | 0.0 | 0.00 | 0.00 | 0.00 | 87 | 975.1 |
| 20260901222338 | 59 | 318 | 0.0 | 0.0 | 0.00 | 0.00 | 0.00 | 87 | 975.1 |
| 20260901221858 | 59 | 318 | 0.0 | 0.0 | 0.00 | 0.00 | 0.00 | 87 | 975.0 |
| 20260901221438 | 59 | 318 | 0.0 | 0.0 | 0.00 | 0.00 | 0.00 | 87 | 975.0 |
| 20260901220948 | 59 | 318 | 0.0 | 0.0 | 0.00 | 0.00 | 0.00 | 86 | 975.1 |
| 20260901220508 | 59 | 318 | 0.0 | 0.0 | 0.00 | 0.00 | 0.00 | 86 | 975.0 |
| 20260901220038 | 59 | 318 | 0.0 | 0.0 | 0.00 | 0.00 | 0.00 | 85 | 975.1 |
| 20260901215603 | 59 | 318 | 0.0 | 0.0 | 0.00 | 0.00 | 0.00 | 80 | 974.9 |
| 20260901215133 | 59 | 318 | 0.0 | 0.0 | 0.00 | 0.00 | 0.00 | 80 | 975.3 |
| 20260901214718 | 59 | 318 | 0.0 | 0.0 | 0.00 | 0.00 | 0.00 | 80 | 975.0 |
| 20260901214238 | 59 | 318 | 0.9 | 0.9 | 0.00 | 0.00 | 0.00 | 80 | 974.9 |
| 20260901213758 | 59 | 164 | 0.0 | 0.9 | 0.00 | 0.00 | 0.00 | 80 | 975.0 |
| 20260901213308 | 59 | 164 | 0.0 | 0.0 | 0.00 | 0.00 | 0.00 | 80 | 974.9 |
| 20260901212843 | 59 | 164 | 0.0 | 0.0 | 0.00 | 0.00 | 0.00 | 80 | 975.0 |
| 20260901212413 | 59 | 164 | 0.9 | 0.9 | 0.00 | 0.00 | 0.00 | 80 | 975.0 |
| 20260901211948 | 59 | 164 | 0.0 | 0.9 | 0.00 | 0.00 | 0.00 | 80 | 974.9 |
| 20260901211518 | 59 | 164 | 0.0 | 0.9 | 0.00 | 0.00 | 0.00 | 80 | 974.9 |
| 20260901211048 | 59 | 164 | 0.0 | 0.9 | 0.00 | 0.00 | 0.00 | 80 | 975.0 |
| 20260901210623 | 59 | 164 | 0.9 | 0.9 | 0.00 | 0.00 | 0.00 | 80 | 974.8 |
| 20260901210213 | 59 | 164 | 0.9 | 2.6 | 0.00 | 0.00 | 0.00 | 80 | 974.6 |
| 20260901205733 | 59 | 164 | 0.0 | 2.6 | 0.00 | 0.00 | 0.00 | 80 | 974.7 |
| 20260901205306 | 59 | 168 | 0.0 | 0.0 | 0.00 | 0.00 | 0.00 | 80 | 974.9 |
| 20260901204848 | 59 | 168 | 0.0 | 0.0 | 0.00 | 0.00 | 0.00 | 80 | 975.0 |
| 20260901204418 | 59 | 168 | 0.0 | 0.0 | 0.00 | 0.00 | 0.00 | 80 | 974.7 |
| 20260901203935 | 59 | 168 | 0.0 | 0.0 | 0.00 | 0.00 | 0.00 | 80 | 974.9 |
| 20260901203508 | 59 | 168 | 0.0 | 0.0 | 0.00 | 0.00 | 0.00 | 80 | 974.8 |
| 20260901203033 | 59 | 168 | 0.9 | 0.9 | 0.00 | 0.00 | 0.00 | 80 | 974.8 |
| 20260901202618 | 59 | 168 | 0.0 | 0.9 | 0.00 | 0.00 | 0.00 | 80 | 974.9 |
| 20260901202135 | 59 | 168 | 0.0 | 0.9 | 0.00 | 0.00 | 0.00 | 73 | 974.5 |
| 20260901201653 | 59 | 220 | 0.0 | 0.9 | 0.00 | 0.00 | 0.00 | 73 | 974.7 |
| 20260901201223 | 59 | 220 | 0.0 | 0.0 | 0.00 | 0.00 | 0.00 | 73 | 974.7 |
| 20260901200803 | 59 | 220 | 0.0 | 0.9 | 0.00 | 0.00 | 0.00 | 73 | 974.7 |
| 20260901200338 | 59 | 220 | 0.0 | 0.9 | 0.00 | 0.00 | 0.00 | 73 | 974.7 |
| 20260901195928 | 62 | 220 | 0.0 | 0.9 | 0.00 | 0.00 | 0.00 | 73 | 974.7 |
| 20260901195458 | 62 | 220 | 0.9 | 0.9 | 0.00 | 0.00 | 0.00 | 73 | 974.5 |
| 20260901195043 | 62 | 220 | 0.9 | 0.9 | 0.00 | 0.00 | 0.00 | 73 | 974.8 |